Epoch 2010 Feb. 13.0 TT = JDT 2455240.5 T 2010 Feb. 4.81810 TT MPC q 1.6956406 (2000.0) P Q z +0.0272064 Peri. 333.10727 +0.07170146 -0.72053364 +/-0.0000046 Node 254.81327 -0.73714381 -0.50410086 e 0.9538676 Incl. 134.38458 -0.67192105 +0.47614450
m1 = 9.5 + 5 logΔ + 20.0 log r